Beaumont / Port Arthur, TX

6:51 AM CDT on September 21, 2017 (GMT -0500)
Beaumont Municipal

Weather History for KBMT - March, 2014

Change the Weather History Date:

Saturday, March 1, 2014

  Actual Average (KBPT) Record (KBPT)
Temperature  
Mean Temperature 68 °F -  
Max Temperature 78 °F 68 °F 85 °F (2017)
Min Temperature 59 °F 49 °F 27 °F (1968)
Cooling Degree Days 4    
Growing Degree Days 18 (Base 50)    
Moisture  
Dew Point 64 °F    
Average Humidity 89    
Maximum Humidity 100    
Minimum Humidity 66    
Precipitation  
Precipitation 0.00 in - - ()
Sea Level Pressure  
Sea Level Pressure 30.03 in    
Wind  
Wind Speed 9 mph (South)    
Max Wind Speed 17 mph    
Max Gust Speed 24 mph    
Visibility 9 miles    
Events      
Averages and records for this station are not official NWS values.
T = Trace of Precipitation, MM = Missing Value Source: NWS Daily Summary

Daily Weather History Graph

Daily Weather History Graph

Search for Another Location

Airport or City:

Trip Planner

Search our weather history database for the weather conditions in past years. The results will help you decide how hot, cold, wet, or windy it might be!

Date:

Astronomy

Mar. 01, 2014 Rise Set
Actual Time 6:42 AM CST 6:15 PM CST
Civil Twilight 6:18 AM CST 6:40 PM CST
Nautical Twilight 5:51 AM CST 7:07 PM CST
Astronomical Twilight 5:23 AM CST 7:35 PM CST
Moon 6:41 AM CST (3/1) 6:57 PM CST (3/1)
Length of Visible Light 12h 21m
Length of Day
11h 33m
New Moon, 0% of the Moon is Illuminated
Mar 1
New Moon
Mar 8
First Quarter
Mar 16
Full
Mar 23
Last Quarter
Mar 30
New

Hourly Weather History & Observations

Time (CST) Temp. Dew Point Humidity Pressure Visibility Wind Dir Wind Speed Gust Speed Precip Events Conditions
12:15 AM 60.4 °F 59.5 °F 97% 29.96 in 10.0 mi South 8.1 mph - N/A   Overcast
12:35 AM 59.9 °F 59.2 °F 97% 29.96 in 7.0 mi SSE 8.1 mph - N/A   Overcast
12:55 AM 59.9 °F 59.2 °F 97% 29.96 in 7.0 mi SSE 6.9 mph - N/A   Overcast
1:15 AM 59.9 °F 59.2 °F 97% 29.96 in 7.0 mi SSE 6.9 mph - N/A   Overcast
1:35 AM 59.4 °F 59.0 °F 99% 29.97 in 7.0 mi SE 5.8 mph - N/A   Overcast
1:55 AM 59.2 °F 59.0 °F 99% 29.97 in 7.0 mi SSE 5.8 mph - N/A   Overcast
2:15 AM 59.2 °F 59.0 °F 99% 29.97 in 7.0 mi SSE 5.8 mph - N/A   Overcast
2:35 AM 59.0 °F 59.0 °F 100% 29.97 in 7.0 mi South 5.8 mph - N/A   Overcast
2:55 AM 59.2 °F 59.0 °F 99% 29.97 in 5.0 mi South 6.9 mph - N/A   Overcast
3:15 AM 59.5 °F 59.4 °F 99% 29.97 in 7.0 mi South 6.9 mph - N/A   Overcast
3:35 AM 60.1 °F 59.9 °F 99% 29.97 in 7.0 mi South 8.1 mph - N/A   Overcast
3:55 AM 60.1 °F 59.9 °F 99% 29.98 in 5.0 mi South 9.2 mph - N/A   Overcast
4:15 AM 60.3 °F 60.1 °F 99% 29.98 in 5.0 mi South 9.2 mph - N/A   Overcast
4:35 AM 60.6 °F 60.4 °F 99% 29.98 in 5.0 mi SE 4.6 mph - N/A   Overcast
4:55 AM 60.8 °F 60.8 °F 100% 29.99 in 5.0 mi SSE 4.6 mph - N/A   Overcast
5:15 AM 61.2 °F 61.0 °F 99% 30.00 in 7.0 mi SSE 4.6 mph - N/A   Overcast
5:35 AM 61.7 °F 61.5 °F 99% 30.00 in 7.0 mi South 5.8 mph - N/A   Overcast
6:00 AM 61.5 °F 61.2 °F 99% 30.01 in 7.0 mi SSE 5.8 mph - N/A   Overcast
6:15 AM 61.3 °F 61.2 °F 99% 30.01 in 7.0 mi South 9.2 mph - N/A   Overcast
6:35 AM 61.9 °F 61.7 °F 99% 30.02 in 5.0 mi SSE 8.1 mph - N/A   Overcast
6:55 AM 62.1 °F 61.9 °F 99% 30.02 in 4.0 mi South 8.1 mph - N/A   Overcast
7:15 AM 62.2 °F 62.1 °F 99% 30.03 in 4.0 mi South 8.1 mph - N/A   Overcast
7:35 AM 63.0 °F 62.6 °F 99% 30.04 in 5.0 mi South 6.9 mph - N/A   Overcast
7:55 AM 63.9 °F 63.5 °F 99% 30.04 in 7.0 mi South 8.1 mph - N/A   Overcast
8:15 AM 65.1 °F 63.9 °F 96% 30.05 in 10.0 mi South 10.4 mph 19.6 mph N/A   Overcast
8:35 AM 66.2 °F 64.4 °F 94% 30.05 in 10.0 mi South 11.5 mph 18.4 mph N/A   Overcast
8:55 AM 67.3 °F 64.9 °F 92% 30.06 in 10.0 mi South 11.5 mph 17.3 mph N/A   Overcast
9:15 AM 69.6 °F 66.0 °F 88% 30.07 in 10.0 mi South 12.7 mph 20.7 mph N/A   Overcast
9:35 AM 71.2 °F 66.6 °F 85% 30.07 in 10.0 mi South 10.4 mph 18.4 mph N/A   Overcast
9:55 AM 72.3 °F 66.4 °F 82% 30.07 in 10.0 mi South 9.2 mph 18.4 mph N/A   Overcast
10:15 AM 72.5 °F 66.6 °F 82% 30.07 in 10.0 mi South 11.5 mph 20.7 mph N/A   Overcast
10:35 AM 74.3 °F 66.9 °F 78% 30.07 in 10.0 mi South 15.0 mph 19.6 mph N/A   Overcast
10:55 AM 74.5 °F 66.6 °F 76% 30.07 in 10.0 mi South 13.8 mph 18.4 mph N/A   Overcast
11:15 AM 75.7 °F 66.9 °F 74% 30.07 in 10.0 mi South 12.7 mph 20.7 mph N/A   Overcast
11:35 AM 74.7 °F 66.7 °F 76% 30.07 in 10.0 mi SSW 9.2 mph 21.9 mph N/A   Overcast
11:55 AM 76.6 °F 66.9 °F 72% 30.06 in 10.0 mi South 10.4 mph 17.3 mph N/A   Overcast
12:15 PM 76.6 °F 67.1 °F 72% 30.06 in 10.0 mi South 15.0 mph 19.6 mph N/A   Overcast
12:35 PM 76.8 °F 66.2 °F 70% 30.05 in 10.0 mi South 12.7 mph 20.7 mph N/A   Overcast
12:55 PM 76.8 °F 66.2 °F 70% 30.04 in 10.0 mi South 12.7 mph 20.7 mph N/A   Overcast
1:15 PM 78.6 °F 66.6 °F 66% 30.03 in 10.0 mi South 15.0 mph 19.6 mph N/A   Mostly Cloudy
1:35 PM 78.3 °F 66.4 °F 67% 30.03 in 10.0 mi South 12.7 mph 20.7 mph N/A   Mostly Cloudy
1:55 PM 78.4 °F 66.7 °F 67% 30.02 in 10.0 mi South 13.8 mph 19.6 mph N/A   Mostly Cloudy
2:20 PM 78.8 °F 66.4 °F 66% 30.02 in 10.0 mi South 15.0 mph 24.2 mph N/A   Scattered Clouds
2:35 PM 76.5 °F 66.2 °F 70% 30.02 in 10.0 mi South 17.3 mph 21.9 mph N/A   Mostly Cloudy
2:55 PM 77.5 °F 67.1 °F 70% 30.03 in 10.0 mi South 13.8 mph 18.4 mph N/A   Overcast
3:15 PM 76.1 °F 66.9 °F 73% 30.02 in 10.0 mi South 13.8 mph 21.9 mph N/A   Overcast
3:35 PM 75.4 °F 66.6 °F 74% 30.02 in 10.0 mi South 10.4 mph 18.4 mph N/A   Overcast
3:55 PM 75.2 °F 66.6 °F 74% 30.02 in 10.0 mi SSE 10.4 mph 20.7 mph N/A   Overcast
4:15 PM 75.2 °F 66.9 °F 75% 30.03 in 10.0 mi South 10.4 mph 18.4 mph N/A   Overcast
4:35 PM 73.8 °F 66.2 °F 77% 30.03 in 10.0 mi SSE 11.5 mph 19.6 mph N/A   Overcast
4:55 PM 73.0 °F 66.2 °F 79% 30.03 in 10.0 mi South 10.4 mph 16.1 mph N/A   Mostly Cloudy
5:15 PM 72.7 °F 66.4 °F 81% 30.04 in 10.0 mi SSE 10.4 mph - N/A   Mostly Cloudy
5:35 PM 70.7 °F 65.8 °F 85% 30.04 in 10.0 mi South 11.5 mph 18.4 mph N/A   Overcast
5:55 PM 69.6 °F 66.2 °F 89% 30.05 in 10.0 mi SSE 8.1 mph 21.9 mph N/A   Overcast
6:15 PM 68.7 °F 66.2 °F 92% 30.04 in 10.0 mi SSE 10.4 mph - N/A   Overcast
6:35 PM 68.0 °F 66.2 °F 94% 30.04 in 10.0 mi South 13.8 mph 19.6 mph N/A   Overcast
6:55 PM 68.0 °F 66.2 °F 94% 30.04 in 10.0 mi SSE 9.2 mph - N/A   Overcast
7:15 PM 67.5 °F 66.2 °F 96% 30.05 in 10.0 mi SSE 10.4 mph 16.1 mph N/A   Overcast
7:35 PM 67.3 °F 66.2 °F 96% 30.05 in 10.0 mi SSE 9.2 mph 17.3 mph N/A   Overcast
7:55 PM 67.3 °F 66.2 °F 96% 30.05 in 10.0 mi SSE 8.1 mph 16.1 mph N/A   Overcast
8:15 PM 67.1 °F 65.8 °F 96% 30.05 in 10.0 mi SSE 9.2 mph 18.4 mph N/A   Overcast
8:35 PM 66.9 °F 65.8 °F 96% 30.05 in 10.0 mi SSE 11.5 mph 17.3 mph N/A   Overcast
8:55 PM 67.1 °F 65.8 °F 96% 30.05 in 10.0 mi SSE 10.4 mph 17.3 mph N/A   Overcast
9:15 PM 67.1 °F 65.7 °F 95% 30.05 in 10.0 mi SSE 10.4 mph 19.6 mph N/A   Overcast
9:35 PM 67.1 °F 65.7 °F 95% 30.05 in 10.0 mi South 9.2 mph 17.3 mph N/A   Overcast
9:55 PM 66.7 °F 65.5 °F 96% 30.04 in 10.0 mi SSE 9.2 mph 17.3 mph N/A   Overcast
10:15 PM 66.6 °F 65.3 °F 96% 30.04 in 10.0 mi SSE 11.5 mph 18.4 mph N/A   Overcast
10:35 PM 66.7 °F 65.1 °F 95% 30.03 in 10.0 mi SSE 9.2 mph 18.4 mph N/A   Overcast
10:55 PM 66.7 °F 64.6 °F 93% 30.03 in 10.0 mi SSE 9.2 mph 19.6 mph N/A   Overcast
11:15 PM 66.6 °F 64.4 °F 93% 30.03 in 10.0 mi South 8.1 mph - N/A   Overcast
11:35 PM 66.4 °F 64.4 °F 93% 30.03 in 10.0 mi South 8.1 mph - N/A   Overcast
11:55 PM 66.6 °F 64.4 °F 93% 30.03 in 10.0 mi South 8.1 mph - N/A   Overcast